Location: Caltech
(34.1382°N, 118.1253°W)
Time: 20:37:43
(UTC-07:00)

Saudisat 1A - Visible Passes

Search period start: 28 August 2016 00:00
Search period end: 07 September 2016 00:00
Orbit: 564 x 630 km, 64.6° (Epoch: 28 August)

Date Brightness Start Highest point End Pass type
(mag) Time Alt. Az. Time Alt. Az. Time Alt. Az.
02 Sep 10.6 21:47:38 10° N 21:48:31 13° NNE 21:48:31 13° NNE visible
03 Sep 10.5 21:57:10 10° N 21:58:25 17° N 21:58:25 17° N visible
04 Sep 10.5 22:07:02 10° NNW 22:08:22 19° NNW 22:08:22 19° NNW visible
05 Sep 10.2 20:39:47 10° NNE 20:41:43 13° NE 20:41:43 13° NE visible
05 Sep 10.7 22:17:13 10° NW 22:18:23 18° NW 22:18:23 18° NW visible
06 Sep 9.7 20:48:46 10° N 20:51:46 21° NE 20:51:46 21° NE visible
06 Sep 11.0 22:27:41 10° NW 22:28:27 14° NW 22:28:27 14° NW visible
